TimeCST,TemperatureF,Dew PointF,Humidity,Sea Level PressureIn,VisibilityMPH,Wind Direction,Wind SpeedMPH,Gust SpeedMPH,PrecipitationIn,Events,Conditions,WindDirDegrees,DateUTC
12:56 AM,71.1,70.0,96,29.85,10.0,SSE,9.2,-,N/A,,Clear,160,2012-12-09 06:56:00
1:56 AM,71.1,69.1,93,29.83,10.0,SSE,8.1,-,N/A,,Clear,160,2012-12-09 07:56:00
2:56 AM,71.1,70.0,96,29.83,10.0,SSE,9.2,-,N/A,,Clear,160,2012-12-09 08:56:00
3:56 AM,72.0,70.0,93,29.83,9.0,SSE,9.2,-,N/A,,Mostly Cloudy,160,2012-12-09 09:56:00
4:54 AM,71.6,69.8,94,29.82,8.0,SSE,10.4,-,N/A,,Mostly Cloudy,160,2012-12-09 10:54:00
4:56 AM,72.0,70.0,93,29.83,8.0,South,9.2,-,N/A,,Mostly Cloudy,170,2012-12-09 10:56:00
5:56 AM,72.0,71.1,97,29.84,6.0,SSE,8.1,-,N/A,,Overcast,160,2012-12-09 11:56:00
6:56 AM,72.0,71.1,97,29.87,5.0,South,4.6,-,N/A,,Overcast,170,2012-12-09 12:56:00
7:15 AM,71.6,71.6,100,29.87,5.0,SSE,4.6,-,N/A,,Overcast,150,2012-12-09 13:15:00
7:56 AM,73.0,71.1,93,29.87,4.0,SSE,8.1,-,N/A,,Overcast,160,2012-12-09 13:56:00
8:04 AM,73.4,71.6,94,29.88,4.0,North,-9999.0,-,N/A,,Overcast,0,2012-12-09 14:04:00
8:27 AM,73.4,71.6,94,29.89,4.0,North,-9999.0,-,N/A,,Overcast,0,2012-12-09 14:27:00
8:56 AM,73.0,71.1,93,29.90,4.0,SSE,8.1,-,N/A,,Overcast,160,2012-12-09 14:56:00
9:54 AM,75.2,71.6,89,29.91,5.0,SSE,9.2,-,N/A,,Mostly Cloudy,160,2012-12-09 15:54:00
9:56 AM,75.0,72.0,90,29.91,5.0,SSE,9.2,-,N/A,,Mostly Cloudy,160,2012-12-09 15:56:00
10:23 AM,75.2,71.6,89,29.91,5.0,South,10.4,21.9,N/A,,Mostly Cloudy,170,2012-12-09 16:23:00
10:48 AM,75.2,71.6,89,29.91,6.0,SSE,11.5,-,N/A,,Mostly Cloudy,160,2012-12-09 16:48:00
10:56 AM,75.9,72.0,87,29.91,6.0,South,11.5,-,N/A,,Mostly Cloudy,170,2012-12-09 16:56:00
11:38 AM,77.0,71.6,83,29.90,6.0,SSE,11.5,-,N/A,,Haze,160,2012-12-09 17:38:00
11:45 AM,75.2,71.6,89,29.89,6.0,SSE,11.5,-,N/A,,Mostly Cloudy,160,2012-12-09 17:45:00
11:56 AM,77.0,72.0,84,29.88,6.0,SSE,9.2,-,N/A,,Haze,160,2012-12-09 17:56:00
12:06 PM,77.0,71.6,83,29.87,6.0,SSE,10.4,-,N/A,,Haze,160,2012-12-09 18:06:00
12:56 PM,78.1,71.1,79,29.84,6.0,South,12.7,-,N/A,,Haze,170,2012-12-09 18:56:00
1:56 PM,78.1,70.0,76,29.81,9.0,SSE,15.0,23.0,N/A,,Clear,160,2012-12-09 19:56:00
2:56 PM,78.1,70.0,76,29.80,10.0,SSE,18.4,-,N/A,,Mostly Cloudy,160,2012-12-09 20:56:00
3:56 PM,77.0,70.0,79,29.79,10.0,South,16.1,23.0,N/A,,Mostly Cloudy,190,2012-12-09 21:56:00
4:56 PM,75.0,70.0,84,29.77,10.0,SSE,15.0,-,N/A,,Mostly Cloudy,150,2012-12-09 22:56:00
5:56 PM,75.0,71.1,87,29.78,10.0,SSE,13.8,-,N/A,,Overcast,150,2012-12-09 23:56:00
6:56 PM,73.9,71.1,91,29.80,10.0,SSE,15.0,-,N/A,,Overcast,150,2012-12-10 00:56:00
7:56 PM,73.9,71.1,91,29.80,10.0,SSE,12.7,23.0,N/A,,Overcast,150,2012-12-10 01:56:00
8:56 PM,73.9,71.1,91,29.81,10.0,SSE,13.8,-,N/A,,Overcast,150,2012-12-10 02:56:00
9:56 PM,73.9,72.0,93,29.82,9.0,South,12.7,-,N/A,,Mostly Cloudy,170,2012-12-10 03:56:00
10:08 PM,73.4,71.6,94,29.83,9.0,South,9.2,-,N/A,,Overcast,170,2012-12-10 04:08:00
10:23 PM,73.4,71.6,94,29.82,9.0,SSE,9.2,-,N/A,,Overcast,160,2012-12-10 04:23:00
10:56 PM,73.0,72.0,96,29.82,8.0,SSE,10.4,-,N/A,,Overcast,160,2012-12-10 04:56:00
11:56 PM,73.0,72.0,96,29.82,7.0,SSE,8.1,-,N/A,,Mostly Cloudy,160,2012-12-10 05:56:00